Location: CAO
(44.5093°N, 80.3921°W)
Time: 05:53:14
(UTC-05:00)

Tiangong - Visible Passes

Search period start: 21 January 2026 00:00
Search period end: 31 January 2026 00:00
Orbit: 378 x 393 km, 41.5° (Epoch: 20 January)

Date Brightness Start Highest point End Pass type
(mag) Time Alt. Az. Time Alt. Az. Time Alt. Az.
21 Jan 1.3 05:04:24 12° ESE 05:04:24 12° ESE 05:04:48 10° ESE visible
21 Jan -1.2 06:36:38 17° WSW 06:38:50 44° S 06:41:55 10° E visible
22 Jan -0.6 05:40:03 33° SE 05:40:03 33° SE 05:42:23 10° E visible
22 Jan -1.3 07:12:57 10° W 07:16:01 47° S 07:19:06 10° ESE visible
23 Jan -1.5 06:15:33 34° SW 06:16:30 48° S 06:19:35 10° ESE visible
24 Jan 0.5 05:18:44 20° ESE 05:18:44 20° ESE 05:19:58 10° E visible
24 Jan -1.2 06:50:57 13° WSW 06:53:30 40° S 06:56:32 10° ESE visible
25 Jan -1.4 05:54:02 45° S 05:54:02 45° S 05:56:55 10° ESE visible
26 Jan 1.4 04:57:04 11° ESE 04:57:04 11° ESE 04:57:12 10° ESE visible
26 Jan -0.9 06:29:16 21° WSW 06:30:41 31° SSW 06:33:32 10° SE visible
27 Jan -0.1 05:32:14 25° SE 05:32:14 25° SE 05:33:54 10° ESE visible
27 Jan 0.1 07:05:17 10° WSW 07:07:16 16° SSW 07:09:15 10° SSE visible
28 Jan -0.5 06:07:22 22° SSW 06:07:31 22° SSW 06:10:04 10° SSE visible
29 Jan 1.1 05:10:17 11° SE 05:10:17 11° SE 05:10:28 10° SE visible
30 Jan 0.5 05:45:23 12° S 05:45:23 12° S 05:45:57 10° SSE visible
